UAL2210 KDEN-KABQ

Flight info

Callsign UAL2210
Flight time 1h 5m
Altitude 36000
Route SMMUR2 DAAYE DATME SNDIA4
Aircraft A320/M-SDE3FGHIRWY/LB1

Departure

Time 2026-05-06 18:43
Airport Denver International Airport (KDEN)

Arrival

Time 2026-05-06 19:48
Airport Albuquerque International Sunport (KABQ)
Time Latitude Longitude Altitude Speed Heading
2026-05-06 18:16 39.85819 -104.67767 5449 ft 0 kts
2026-05-06 18:31 39.85807 -104.67767 5448 ft 4 kts
2026-05-06 18:32 39.85780 -104.67767 5448 ft 4 kts
2026-05-06 18:32 39.85753 -104.67765 5448 ft 4 kts 345°
2026-05-06 18:32 39.85732 -104.67750 5448 ft 4 kts 290°
2026-05-06 18:32 39.85730 -104.67739 5448 ft 0 kts 270°
2026-05-06 18:36 39.85730 -104.67755 5448 ft 4 kts 270°
2026-05-06 18:36 39.85730 -104.67814 5448 ft 7 kts 270°
2026-05-06 18:37 39.85731 -104.67896 5448 ft 10 kts 270°
2026-05-06 18:37 39.85728 -104.67925 5448 ft 2 kts 244°
2026-05-06 18:37 39.85700 -104.67943 5448 ft 7 kts 187°
2026-05-06 18:37 39.85638 -104.67947 5448 ft 10 kts 182°
2026-05-06 18:38 39.85591 -104.68008 5448 ft 12 kts 260°
2026-05-06 18:38 39.85593 -104.68137 5448 ft 15 kts 273°
2026-05-06 18:38 39.85597 -104.68263 5448 ft 13 kts 271°
2026-05-06 18:38 39.85597 -104.68360 5448 ft 9 kts 263°
2026-05-06 18:39 39.85535 -104.68396 5448 ft 13 kts 181°
2026-05-06 18:39 39.85431 -104.68398 5448 ft 15 kts 180°
2026-05-06 18:39 39.85343 -104.68398 5448 ft 10 kts 180°
2026-05-06 18:40 39.85204 -104.68434 5448 ft 7 kts 248°
2026-05-06 18:40 39.85198 -104.68519 5448 ft 12 kts 270°
2026-05-06 18:40 39.85199 -104.68647 5448 ft 16 kts 270°
2026-05-06 18:40 39.85199 -104.68816 5448 ft 21 kts 270°
2026-05-06 18:41 39.85199 -104.68999 5448 ft 21 kts 270°
2026-05-06 18:41 39.85200 -104.69157 5448 ft 18 kts 271°
2026-05-06 18:41 39.85201 -104.69326 5448 ft 19 kts 270°
2026-05-06 18:41 39.85202 -104.69466 5448 ft 14 kts 271°
2026-05-06 18:42 39.85203 -104.69559 5448 ft 7 kts 271°
2026-05-06 18:42 39.85205 -104.69631 5448 ft 9 kts 279°
2026-05-06 18:42 39.85262 -104.69659 5448 ft 7 kts
2026-05-06 18:42 39.85297 -104.69659 5448 ft 7 kts
2026-05-06 18:43 39.85464 -104.69654 5448 ft 56 kts
2026-05-06 18:43 39.86120 -104.69645 5449 ft 130 kts
2026-05-06 18:43 39.87210 -104.69641 5544 ft 176 kts
2026-05-06 18:43 39.88448 -104.69727 6256 ft 177 kts 359°
2026-05-06 18:44 39.89704 -104.69785 6954 ft 189 kts
2026-05-06 18:44 39.91069 -104.69830 7348 ft 204 kts 359°
2026-05-06 18:44 39.92494 -104.70292 7696 ft 224 kts 332°
2026-05-06 18:44 39.93709 -104.71706 8046 ft 248 kts 305°
2026-05-06 18:45 39.94374 -104.73855 8506 ft 267 kts 279°
2026-05-06 18:45 39.94294 -104.76332 9030 ft 283 kts 256°
2026-05-06 18:45 39.93407 -104.78687 9740 ft 290 kts 232°
2026-05-06 18:45 39.91885 -104.80402 10519 ft 293 kts 210°
2026-05-06 18:46 39.89937 -104.81304 11059 ft 305 kts 191°
2026-05-06 18:46 39.87804 -104.81834 11506 ft 319 kts 194°
2026-05-06 18:46 39.85610 -104.82594 11913 ft 332 kts 197°
2026-05-06 18:46 39.83369 -104.83435 12515 ft 338 kts 197°
2026-05-06 18:47 39.81093 -104.84259 13204 ft 340 kts 197°
2026-05-06 18:47 39.78793 -104.85037 13865 ft 343 kts 196°
2026-05-06 18:47 39.76466 -104.85794 14509 ft 346 kts 196°
2026-05-06 18:47 39.74151 -104.86542 15134 ft 349 kts 197°
2026-05-06 18:48 39.71785 -104.87311 15754 ft 351 kts 197°
2026-05-06 18:48 39.69409 -104.88090 16357 ft 354 kts 198°
2026-05-06 18:48 39.67009 -104.88875 16948 ft 357 kts 198°
2026-05-06 18:48 39.64586 -104.89664 17534 ft 360 kts 198°
2026-05-06 18:49 39.62155 -104.90462 18124 ft 361 kts 199°
2026-05-06 18:49 39.59708 -104.91270 18684 ft 364 kts 199°
2026-05-06 18:49 39.57243 -104.92080 19214 ft 367 kts 199°
2026-05-06 18:49 39.54761 -104.92891 19739 ft 370 kts 199°
2026-05-06 18:50 39.52255 -104.93711 20255 ft 372 kts 199°
2026-05-06 18:50 39.49728 -104.94534 20752 ft 375 kts 199°
2026-05-06 18:50 39.47179 -104.95363 21243 ft 378 kts 199°
2026-05-06 18:50 39.44623 -104.96195 21715 ft 381 kts 199°
2026-05-06 18:51 39.42039 -104.97039 22178 ft 383 kts 199°
2026-05-06 18:51 39.39438 -104.97889 22630 ft 386 kts 199°
2026-05-06 18:51 39.36831 -104.98737 23064 ft 389 kts 199°
2026-05-06 18:51 39.34196 -104.99590 23492 ft 391 kts 199°
2026-05-06 18:52 39.31540 -105.00449 23911 ft 394 kts 199°
2026-05-06 18:52 39.28873 -105.01312 24307 ft 396 kts 199°
2026-05-06 18:52 39.26184 -105.02183 24684 ft 399 kts 199°
2026-05-06 18:52 39.23514 -105.03048 25044 ft 402 kts 198°
2026-05-06 18:53 39.20787 -105.03928 25400 ft 405 kts 198°
2026-05-06 18:53 39.18043 -105.04816 25751 ft 408 kts 198°
2026-05-06 18:53 39.15289 -105.05745 26093 ft 409 kts 201°
2026-05-06 18:53 39.12662 -105.07102 26433 ft 407 kts 209°
2026-05-06 18:54 39.10107 -105.08701 26763 ft 409 kts 211°
2026-05-06 18:54 39.07573 -105.10389 27090 ft 411 kts 212°
2026-05-06 18:54 39.05031 -105.12108 27421 ft 413 kts 212°
2026-05-06 18:54 39.02471 -105.13808 27748 ft 415 kts 211°
2026-05-06 18:55 38.99881 -105.15479 28075 ft 418 kts 210°
2026-05-06 18:55 38.97268 -105.17141 28392 ft 420 kts 210°
2026-05-06 18:55 38.94646 -105.18813 28695 ft 422 kts 211°
2026-05-06 18:55 38.92016 -105.20504 29012 ft 423 kts 211°
2026-05-06 18:56 38.89374 -105.22212 29308 ft 425 kts 211°
2026-05-06 18:56 38.86722 -105.23927 29612 ft 427 kts 211°
2026-05-06 18:56 38.84062 -105.25647 29910 ft 429 kts 211°
2026-05-06 18:56 38.81388 -105.27369 30201 ft 431 kts 211°
2026-05-06 18:57 38.78706 -105.29089 30493 ft 432 kts 211°
2026-05-06 18:57 38.76031 -105.30804 30765 ft 434 kts 211°
2026-05-06 18:57 38.73333 -105.32536 31116 ft 434 kts 211°
2026-05-06 18:57 38.70626 -105.34272 31455 ft 434 kts 211°
2026-05-06 18:58 38.67920 -105.36004 31795 ft 434 kts 211°
2026-05-06 18:58 38.65224 -105.37730 32130 ft 433 kts 211°
2026-05-06 18:58 38.62529 -105.39454 32443 ft 434 kts 211°
2026-05-06 18:58 38.59808 -105.41193 32744 ft 434 kts 211°
2026-05-06 18:59 38.57124 -105.42906 33070 ft 434 kts 211°
2026-05-06 18:59 38.54425 -105.44628 33377 ft 433 kts 211°
2026-05-06 18:59 38.51722 -105.46352 33645 ft 434 kts 211°
2026-05-06 18:59 38.49016 -105.48072 33936 ft 434 kts 211°
2026-05-06 19:00 38.46310 -105.49792 34209 ft 435 kts 211°
2026-05-06 19:00 38.43599 -105.51518 34517 ft 434 kts 211°
2026-05-06 19:00 38.40893 -105.53232 34811 ft 434 kts 211°
2026-05-06 19:00 38.39096 -105.54353 35011 ft 434 kts 211°
2026-05-06 19:01 38.35494 -105.56574 35378 ft 433 kts 211°
2026-05-06 19:01 38.32782 -105.58244 35649 ft 433 kts 211°
2026-05-06 19:01 38.30074 -105.59923 35903 ft 432 kts 211°
2026-05-06 19:01 38.27367 -105.61611 36145 ft 432 kts 211°
2026-05-06 19:02 38.24655 -105.63302 36167 ft 433 kts 211°
2026-05-06 19:02 38.19229 -105.66666 36158 ft 433 kts 211°
2026-05-06 19:03 38.13811 -105.70006 36154 ft 432 kts 211°
2026-05-06 19:03 38.08433 -105.73331 36149 ft 432 kts 211°
2026-05-06 19:04 38.03019 -105.76667 36145 ft 432 kts 211°
2026-05-06 19:04 37.97223 -105.79007 36121 ft 442 kts 198°
2026-05-06 19:05 37.91164 -105.80475 36147 ft 442 kts 195°
2026-05-06 19:05 37.85152 -105.81890 36110 ft 441 kts 197°
2026-05-06 19:06 37.79151 -105.83470 36070 ft 439 kts 197°
2026-05-06 19:06 37.73174 -105.85007 36069 ft 436 kts 197°
2026-05-06 19:07 37.67246 -105.86469 36061 ft 431 kts 197°
2026-05-06 19:07 37.62302 -105.87719 36080 ft 436 kts 197°
2026-05-06 19:08 37.56329 -105.89239 36087 ft 438 kts 197°
2026-05-06 19:08 37.50352 -105.90731 36086 ft 437 kts 197°
2026-05-06 19:09 37.44392 -105.92212 36083 ft 436 kts 197°
2026-05-06 19:09 37.38483 -105.93703 36094 ft 434 kts 197°
2026-05-06 19:10 37.32562 -105.95190 36113 ft 433 kts 197°
2026-05-06 19:10 37.26653 -105.96665 36111 ft 432 kts 197°
2026-05-06 19:11 37.20767 -105.98128 36114 ft 431 kts 197°
2026-05-06 19:11 37.14894 -105.99587 36117 ft 429 kts 198°
2026-05-06 19:12 37.09058 -106.01045 35784 ft 425 kts 197°
2026-05-06 19:12 37.06155 -106.01769 35520 ft 426 kts 197°
2026-05-06 19:12 37.03243 -106.02491 35276 ft 426 kts 197°
2026-05-06 19:12 37.00326 -106.03209 35030 ft 426 kts 197°
2026-05-06 19:13 36.97429 -106.03921 34782 ft 424 kts 197°
2026-05-06 19:13 36.94549 -106.04629 34535 ft 421 kts 197°
2026-05-06 19:13 36.91674 -106.05340 34287 ft 419 kts 197°
2026-05-06 19:13 36.88826 -106.06049 34038 ft 416 kts 197°
2026-05-06 19:14 36.85996 -106.06756 33793 ft 414 kts 197°
2026-05-06 19:14 36.83215 -106.07446 33548 ft 411 kts 197°
2026-05-06 19:14 36.80415 -106.08132 33301 ft 409 kts 197°
2026-05-06 19:14 36.77630 -106.08814 33051 ft 406 kts 197°
2026-05-06 19:15 36.74864 -106.09493 32805 ft 405 kts 197°
2026-05-06 19:15 36.72112 -106.10167 32557 ft 402 kts 197°
2026-05-06 19:15 36.69373 -106.10838 32310 ft 400 kts 197°
2026-05-06 19:15 36.66653 -106.11552 32058 ft 396 kts 200°
2026-05-06 19:16 36.64047 -106.12572 31817 ft 391 kts 204°
2026-05-06 19:16 36.61495 -106.13704 31569 ft 388 kts 205°
2026-05-06 19:16 36.58963 -106.14864 31321 ft 386 kts 205°
2026-05-06 19:16 36.56448 -106.16013 31074 ft 385 kts 205°
2026-05-06 19:17 36.53930 -106.17150 30826 ft 383 kts 205°
2026-05-06 19:17 36.51421 -106.18268 30580 ft 382 kts 205°
2026-05-06 19:17 36.48954 -106.19363 30334 ft 380 kts 205°
2026-05-06 19:17 36.46469 -106.20465 30086 ft 379 kts 205°
2026-05-06 19:18 36.43986 -106.21570 29839 ft 378 kts 205°
2026-05-06 19:18 36.41514 -106.22670 29591 ft 376 kts 205°
2026-05-06 19:18 36.39054 -106.23768 29343 ft 374 kts 205°
2026-05-06 19:18 36.36609 -106.24856 29096 ft 373 kts 205°
2026-05-06 19:19 36.34163 -106.25940 28849 ft 372 kts 205°
2026-05-06 19:19 36.31732 -106.27013 28599 ft 370 kts 204°
2026-05-06 19:19 36.29308 -106.28079 28352 ft 369 kts 204°
2026-05-06 19:19 36.26882 -106.29146 28079 ft 368 kts 204°
2026-05-06 19:20 36.24475 -106.30203 27679 ft 366 kts 204°
2026-05-06 19:20 36.22080 -106.31257 27224 ft 365 kts 204°
2026-05-06 19:20 36.19718 -106.32299 26745 ft 365 kts 204°
2026-05-06 19:20 36.17328 -106.33354 26282 ft 364 kts 204°
2026-05-06 19:21 36.14946 -106.34400 25822 ft 363 kts 204°
2026-05-06 19:21 36.12569 -106.35439 25362 ft 362 kts 204°
2026-05-06 19:21 36.10194 -106.36476 24898 ft 361 kts 204°
2026-05-06 19:21 36.07824 -106.37504 24429 ft 360 kts 204°
2026-05-06 19:22 36.05463 -106.38525 23962 ft 359 kts 204°
2026-05-06 19:22 36.03104 -106.39540 23497 ft 358 kts 204°
2026-05-06 19:22 36.00752 -106.40552 23045 ft 357 kts 204°
2026-05-06 19:22 35.98405 -106.41560 22612 ft 355 kts 204°
2026-05-06 19:23 35.96081 -106.42562 22150 ft 355 kts 204°
2026-05-06 19:23 35.93740 -106.43571 21678 ft 354 kts 204°
2026-05-06 19:23 35.91445 -106.44559 21239 ft 353 kts 204°
2026-05-06 19:23 35.89130 -106.45552 20803 ft 352 kts 204°
2026-05-06 19:24 35.86809 -106.46508 20359 ft 352 kts 202°
2026-05-06 19:24 35.84480 -106.47439 19907 ft 351 kts 202°
2026-05-06 19:24 35.82157 -106.48365 19446 ft 351 kts 202°
2026-05-06 19:24 35.79841 -106.49298 19010 ft 349 kts 203°
2026-05-06 19:25 35.77547 -106.50239 18567 ft 345 kts 203°
2026-05-06 19:25 35.75285 -106.51171 18200 ft 340 kts 203°
2026-05-06 19:25 35.73075 -106.52074 18063 ft 328 kts 202°
2026-05-06 19:25 35.70949 -106.52938 17889 ft 318 kts 203°
2026-05-06 19:26 35.68853 -106.53792 17495 ft 317 kts 203°
2026-05-06 19:26 35.66773 -106.54642 17172 ft 313 kts 203°
2026-05-06 19:26 35.64735 -106.55473 16883 ft 311 kts 202°
2026-05-06 19:26 35.62689 -106.56302 16606 ft 309 kts 202°
2026-05-06 19:27 35.60658 -106.57122 16338 ft 306 kts 202°
2026-05-06 19:27 35.58669 -106.58005 16079 ft 301 kts 207°
2026-05-06 19:27 35.56753 -106.59013 15828 ft 298 kts 208°
2026-05-06 19:27 35.54869 -106.60042 15578 ft 295 kts 208°
2026-05-06 19:28 35.53001 -106.61069 15327 ft 293 kts 208°
2026-05-06 19:28 35.51149 -106.62075 15082 ft 290 kts 208°
2026-05-06 19:28 35.49307 -106.63068 14833 ft 288 kts 208°
2026-05-06 19:28 35.47497 -106.64043 14526 ft 288 kts 208°
2026-05-06 19:29 35.45656 -106.65038 14150 ft 290 kts 207°
2026-05-06 19:29 35.43804 -106.66036 13774 ft 292 kts 207°
2026-05-06 19:29 35.41933 -106.67039 13399 ft 294 kts 207°
2026-05-06 19:29 35.40050 -106.68051 13022 ft 296 kts 207°
2026-05-06 19:30 35.38158 -106.69071 12643 ft 298 kts 207°
2026-05-06 19:30 35.36256 -106.70091 12276 ft 299 kts 207°
2026-05-06 19:30 35.34350 -106.71112 11900 ft 298 kts 207°
2026-05-06 19:30 35.32451 -106.72115 11511 ft 298 kts 204°
2026-05-06 19:31 35.30417 -106.72625 11101 ft 302 kts 182°
2026-05-06 19:31 35.28376 -106.72012 10681 ft 308 kts 155°
2026-05-06 19:31 35.25722 -106.68032 10197 ft 300 kts 116°
2026-05-06 19:32 35.24869 -106.65743 10076 ft 291 kts 115°
2026-05-06 19:32 35.24001 -106.63553 9965 ft 281 kts 118°
2026-05-06 19:32 35.23056 -106.61516 9865 ft 271 kts 122°
2026-05-06 19:32 35.21959 -106.59712 9757 ft 259 kts 139°
2026-05-06 19:33 35.20564 -106.58409 9671 ft 247 kts 148°
2026-05-06 19:33 35.19166 -106.57284 9500 ft 241 kts 149°
2026-05-06 19:33 35.17775 -106.56203 9391 ft 232 kts 150°
2026-05-06 19:33 35.16436 -106.55169 9266 ft 224 kts 150°
2026-05-06 19:34 35.15126 -106.54157 9034 ft 222 kts 150°
2026-05-06 19:34 35.13742 -106.53339 8766 ft 218 kts 163°
2026-05-06 19:34 35.12291 -106.52813 8499 ft 217 kts 167°
2026-05-06 19:34 35.10841 -106.52343 8228 ft 216 kts 166°
2026-05-06 19:35 35.09403 -106.51824 7959 ft 215 kts 164°
2026-05-06 19:35 35.07975 -106.51266 7676 ft 213 kts 163°
2026-05-06 19:35 35.06565 -106.50833 7235 ft 210 kts 178°
2026-05-06 19:35 35.05229 -106.51278 6908 ft 195 kts 217°
2026-05-06 19:36 35.04476 -106.52518 6766 ft 173 kts 249°
2026-05-06 19:36 35.04265 -106.53888 6550 ft 160 kts 270°
2026-05-06 19:36 35.04313 -106.55221 6262 ft 152 kts 275°
2026-05-06 19:36 35.04336 -106.56485 5943 ft 149 kts 269°
2026-05-06 19:37 35.04276 -106.57747 5650 ft 151 kts 268°
2026-05-06 19:37 35.04221 -106.59215 5570 ft 197 kts 268°
2026-05-06 19:37 35.04137 -106.61061 5708 ft 238 kts 267°
2026-05-06 19:37 35.04077 -106.62460 6024 ft 258 kts 268°
2026-05-06 19:38 35.04048 -106.65452 7125 ft 268 kts 271°
2026-05-06 19:38 35.04055 -106.67621 7619 ft 244 kts 272°
2026-05-06 19:38 35.04051 -106.69627 7855 ft 230 kts 271°
2026-05-06 19:38 35.04059 -106.71546 7946 ft 221 kts 271°
2026-05-06 19:39 35.04091 -106.73408 7986 ft 220 kts 272°
2026-05-06 19:39 35.04137 -106.75290 7996 ft 222 kts 271°
2026-05-06 19:39 35.04314 -106.77147 7991 ft 221 kts 288°
2026-05-06 19:39 35.05129 -106.78731 7998 ft 224 kts 316°
2026-05-06 19:40 35.06487 -106.79658 8006 ft 227 kts 344°
2026-05-06 19:40 35.08049 -106.79697 8010 ft 231 kts 12°
2026-05-06 19:40 35.09488 -106.78823 8012 ft 234 kts 39°
2026-05-06 19:40 35.10592 -106.77356 8025 ft 235 kts 50°
2026-05-06 19:41 35.11630 -106.75809 8024 ft 238 kts 49°
2026-05-06 19:41 35.12704 -106.74225 8021 ft 243 kts 49°
2026-05-06 19:41 35.13752 -106.72657 8016 ft 235 kts 50°
2026-05-06 19:41 35.14784 -106.71101 8014 ft 236 kts 50°
2026-05-06 19:42 35.15819 -106.69549 8019 ft 236 kts 49°
2026-05-06 19:42 35.16857 -106.68001 8018 ft 236 kts 49°
2026-05-06 19:42 35.17896 -106.66444 8014 ft 236 kts 49°
2026-05-06 19:42 35.18931 -106.64889 8012 ft 236 kts 49°
2026-05-06 19:43 35.19974 -106.63304 8010 ft 236 kts 52°
2026-05-06 19:43 35.20689 -106.61517 7936 ft 235 kts 79°
2026-05-06 19:43 35.20550 -106.59573 7820 ft 235 kts 113°
2026-05-06 19:43 35.19554 -106.58046 7702 ft 232 kts 147°
2026-05-06 19:44 35.18111 -106.57174 7602 ft 232 kts 158°
2026-05-06 19:44 35.16633 -106.56415 7467 ft 229 kts 156°
2026-05-06 19:44 35.15220 -106.55571 7333 ft 223 kts 153°
2026-05-06 19:44 35.13880 -106.54690 7203 ft 215 kts 152°
2026-05-06 19:45 35.12571 -106.53844 7067 ft 212 kts 153°
2026-05-06 19:45 35.11257 -106.53032 6942 ft 212 kts 153°
2026-05-06 19:45 35.09974 -106.52241 6948 ft 197 kts 153°
2026-05-06 19:45 35.08806 -106.51512 6916 ft 177 kts 152°
2026-05-06 19:46 35.07728 -106.50850 6913 ft 171 kts 157°
2026-05-06 19:46 35.06585 -106.50656 6917 ft 165 kts 184°
2026-05-06 19:46 35.05531 -106.51075 6836 ft 156 kts 213°
2026-05-06 19:46 35.04783 -106.51981 6483 ft 151 kts 236°
2026-05-06 19:47 35.04363 -106.53150 6154 ft 152 kts 258°
2026-05-06 19:47 35.04304 -106.54410 5936 ft 151 kts 273°
2026-05-06 19:47 35.04352 -106.55682 5719 ft 150 kts 274°
2026-05-06 19:47 35.04397 -106.56950 5519 ft 149 kts 273°
2026-05-06 19:48 35.04376 -106.58225 5370 ft 141 kts 272°
2026-05-06 19:48 35.04427 -106.59208 5369 ft 91 kts 268°
2026-05-06 19:48 35.04424 -106.59624 5369 ft 57 kts 271°
2026-05-06 19:48 35.04428 -106.60005 5369 ft 26 kts 270°
2026-05-06 19:49 35.04441 -106.60129 5369 ft 20 kts 295°
2026-05-06 19:49 35.04510 -106.60269 5369 ft 17 kts 304°
2026-05-06 19:49 35.04556 -106.60349 5369 ft 10 kts 306°
2026-05-06 19:49 35.04613 -106.60387 5369 ft 9 kts 348°
2026-05-06 19:50 35.04644 -106.60448 5369 ft 11 kts 272°
2026-05-06 19:50 35.04648 -106.60552 5369 ft 14 kts 272°
2026-05-06 19:50 35.04650 -106.60681 5369 ft 17 kts 271°
2026-05-06 19:50 35.04653 -106.60836 5369 ft 20 kts 271°
2026-05-06 19:51 35.04655 -106.61015 5369 ft 23 kts 271°
2026-05-06 19:51 35.04658 -106.61184 5369 ft 7 kts 271°
2026-05-06 19:51 35.04659 -106.61257 5369 ft 10 kts 269°
2026-05-06 19:51 35.04611 -106.61322 5369 ft 10 kts 224°
2026-05-06 19:52 35.04600 -106.61413 5369 ft 13 kts 271°
2026-05-06 19:52 35.04600 -106.61515 5369 ft 10 kts 269°
2026-05-06 19:52 35.04616 -106.61572 5369 ft 8 kts 333°
2026-05-06 19:52 35.04671 -106.61575 5369 ft 8 kts
2026-05-06 19:53 35.04692 -106.61573 5369 ft 1 kts
2026-05-06 19:53 35.04699 -106.61573 5369 ft 0 kts